FW4185 Weather Reports


Display with metric or nautical units.
time (UTC)temp
F
wind
direction
speed
MPH
gust
MPH
rain 1hr
in
rain 24hr
in
rain mn
in
humidity
%
barometer
mb
20260906052344 64 356 0.0 0.0 0.00 0.00 0.00 75 1015.3
20260906051705 64 356 0.0 0.0 0.00 0.00 0.00 75 1015.2
20260906051025 64 357 0.0 0.0 0.00 0.00 0.00 74 1015.1
20260906050345 64 357 0.0 0.0 0.00 0.00 0.00 73 1015.2
20260906045705 0 355 0.0 0.0 0.00 0.00 0.00
20260906044914 64 358 0.0 0.0 0.00 0.00 0.00 74 1015.2
20260906044234 64 355 0.0 0.0 0.00 0.00 0.00 74 1015.2
20260906043554 64 358 0.0 0.0 0.00 0.00 0.00 74 1015.2
20260906042914 0 356 0.0 0.0 0.00 0.00 0.00
20260906042123 64 355 0.0 0.0 0.00 0.00 0.00 73 1015.1
20260906041444 65 356 0.0 0.0 0.00 0.00 0.00 72 1015.1
20260906040804 64 354 0.0 0.0 0.00 0.00 0.00 72 1015.1
20260906040124 64 355 0.0 0.0 0.00 0.00 0.00 72 1015.1
20260906035444 65 354 0.0 0.0 0.00 0.00 0.00 71 1015.0
20260906034804 0 356 0.0 0.0 0.00 0.00 0.00
20260906033751 64 357 0.0 0.0 0.00 0.00 0.00 72 1015.1
20260906033111 0 355 0.0 0.0 0.00 0.00 0.00
20260906032322 64 358 0.0 0.0 0.00 0.00 0.00 72 1015.0
20260906031642 0 354 0.0 0.0 0.00 0.00 0.00
20260906030852 0 354 0.0 0.0 0.00 0.00 0.00
20260906030105 65 357 0.0 0.0 0.00 0.00 0.00 69 1014.9
20260906025202 65 356 0.0 0.0 0.00 0.00 0.00 70 1014.8
20260906024523 65 357 0.0 0.0 0.00 0.00 0.00 69 1014.8
20260906023843 0 352 0.0 0.0 0.00 0.00 0.00
20260906023054 65 356 0.0 0.0 0.00 0.00 0.00 69 1014.9
20260906022415 65 357 0.0 0.0 0.00 0.00 0.00 68 1014.9
20260906021734 0 357 0.0 0.0 0.00 0.00 0.00
20260906020944 66 355 0.0 0.0 0.00 0.00 0.00 64 1014.8
20260906020306 66 356 0.0 0.0 0.00 0.00 0.00 63 1014.8
20260906015517 0 356 0.0 0.0 0.00 0.00 0.00
20260906014727 0 356 0.0 0.0 0.00 0.00 0.00
20260906013830 67 356 0.0 0.0 0.00 0.00 0.00 61 1014.7
20260906013152 67 355 0.0 0.0 0.00 0.00 0.00 61 1014.7
20260906012515 0 357 0.0 0.0 0.00 0.00 0.00
20260906011722 0 359 0.0 0.0 0.00 0.00 0.00
20260906010933 68 357 0.0 0.0 0.00 0.00 0.00 58 1014.6
20260906010254 68 357 0.0 0.0 0.00 0.00 0.00 57 1014.5
20260906005613 0 358 0.0 0.0 0.00 0.00 0.00
20260906004824 70 354 0.0 0.0 0.00 0.00 0.00 54 1014.4
20260906004145 0 360 0.0 0.0 0.00 0.00 0.00
20260906003354 70 357 0.0 0.0 0.00 0.00 0.00 54 1014.3
20260906002714 70 356 0.0 0.0 0.00 0.00 0.00 53 1014.3
20260906002034 70 355 0.0 0.0 0.00 0.00 0.00 54 1014.3
20260906001354 0 359 0.0 0.0 0.00 0.00 0.00
20260906000455 0 353 0.0 0.0 0.00 0.00 0.00
20260905235706 71 356 0.0 0.0 0.00 0.00 0.00 50 1014.2
20260905235025 71 355 0.0 0.0 0.00 0.00 0.00 50 1014.1
20260905234012 72 358 0.0 3.0 0.00 0.00 0.00 48 1014.1
20260905233333 72 356 0.0 4.0 0.00 0.00 0.00 46 1014.1
20260905232652 73 357 0.0 4.0 0.00 0.00 0.00 46 1014.2
20260905232014 73 355 0.0 0.0 0.00 0.00 0.00 44 1014.1
20260905231332 74 355 0.0 3.0 0.00 0.00 0.00 44 1014.1
20260905230653 0 355 0.0 4.0 0.00 0.00 0.00
20260905225852 74 355 0.0 0.0 0.00 0.00 0.00 44 1014.1
20260905225214 0 356 0.0 5.0 0.00 0.00 0.00
20260905224308 0 355 0.0 5.0 0.00 0.00 0.00
20260905223517 75 357 3.0 7.0 0.00 0.00 0.00 43 1014.1
20260905222837 76 355 0.0 8.0 0.00 0.00 0.00 41 1014.2
20260905222156 76 355 3.0 7.0 0.00 0.00 0.00 42 1014.1
20260905221516 76 354 2.0 8.0 0.00 0.00 0.00 42 1014.2
20260905220836 75 354 5.0 8.0 0.00 0.00 0.00 43 1014.1
20260905220157 0 353 2.0 4.0 0.00 0.00 0.00
20260905215409 0 357 0.0 8.0 0.00 0.00 0.00
20260905214611 0 360 3.0 10.0 0.00 0.00 0.00
20260905213828 77 355 0.0 8.0 0.00 0.00 0.00 41 1013.9
20260905213144 76 354 2.0 8.0 0.00 0.00 0.00 42 1013.9
20260905212503 0 357 0.0 9.0 0.00 0.00 0.00
20260905211710 0 357 5.0 5.0 0.00 0.00 0.00
20260905210920 76 356 1.0 8.0 0.00 0.00 0.00 45 1013.7
20260905210240 0 358 0.0 8.0 0.00 0.00 0.00
20260905205310 0 351 0.0 7.0 0.00 0.00 0.00
20260905204602 76 359 2.0 7.0 0.00 0.00 0.00 45 1013.8
20260905203932 76 356 0.0 0.0 0.00 0.00 0.00 48 1013.7
20260905203243 74 356 0.0 6.0 0.00 0.00 0.00 49 1013.7
20260905202603 74 358 0.0 7.0 0.00 0.00 0.00 47 1013.7
20260905201928 0 356 4.0 4.0 0.00 0.00 0.00
20260905201017 0 356 1.0 3.0 0.00 0.00 0.00
20260905200015 75 357 4.0 9.0 0.00 0.00 0.00 43 1013.9
20260905195330 75 356 0.0 4.0 0.00 0.00 0.00 45 1013.8
20260905194651 0 360 0.0 9.0 0.00 0.00 0.00
20260905193900 0 357 3.0 4.0 0.00 0.00 0.00
20260905192833 74 356 6.0 10.0 0.00 0.00 0.00 46 1013.9
20260905192153 0 352 5.0 4.0 0.00 0.00 0.00
20260905191402 75 355 5.0 8.0 0.00 0.00 0.00 43 1013.9
20260905190727 75 358 0.0 7.0 0.00 0.00 0.00 44 1014.1
20260905190043 0 356 6.0 6.0 0.00 0.00 0.00
20260905185255 76 357 4.0 9.0 0.00 0.00 0.00 45 1014.3
20260905184616 75 357 3.0 4.0 0.00 0.00 0.00 44 1014.3
20260905183823 74 358 5.0 10.0 0.00 0.00 0.00 47 1014.2
20260905183154 75 355 4.0 11.0 0.00 0.00 0.00 48 1014.2
20260905182503 74 356 7.0 11.0 0.00 0.00 0.00 48 1014.1
20260905181824 0 355 7.0 9.0 0.00 0.00 0.00
20260905181116 74 357 0.0 10.0 0.00 0.00 0.00 48 1014.0
20260905180437 0 350 7.0 6.0 0.00 0.00 0.00
20260905175732 0 354 8.0 8.0 0.00 0.00 0.00
20260905174942 75 355 2.0 9.0 0.00 0.00 0.00 47 1014.0
20260905174302 73 357 5.0 10.0 0.00 0.00 0.00 50 1014.0
20260905173622 72 356 7.0 10.0 0.00 0.00 0.00 49 1014.0
20260905172942 74 355 4.0 8.0 0.00 0.00 0.00 48 1013.9
20260905172305 74 355 3.0 8.0 0.00 0.00 0.00 49 1014.0
20260905171623 74 356 2.0 7.0 0.00 0.00 0.00 49 1014.1
20260905170944 76 353 2.0 7.0 0.00 0.00 0.00 45 1014.1
20260905170303 75 360 2.0 8.0 0.00 0.00 0.00 43 1014.1
20260905165622 73 356 4.0 8.0 0.00 0.00 0.00 47 1014.2
20260905164942 0 357 3.0 8.0 0.00 0.00 0.00
20260905164031 76 358 2.0 8.0 0.00 0.00 0.00 45 1014.1
20260905163351 76 358 1.0 8.0 0.00 0.00 0.00 49 1014.1
20260905162712 74 355 1.0 8.0 0.00 0.00 0.00 48 1014.2
20260905162031 0 355 4.0 8.0 0.00 0.00 0.00
20260905161240 76 354 2.0 8.0 0.00 0.00 0.00 46 1014.2
20260905160600 0 356 4.0 4.0 0.00 0.00 0.00
20260905155335 76 359 2.0 6.0 0.00 0.00 0.00 47 1014.3
20260905154653 75 356 1.0 6.0 0.00 0.00 0.00 47 1014.3
20260905154012 74 356 3.0 10.0 0.00 0.00 0.00 49 1014.3
20260905153334 74 354 5.0 10.0 0.00 0.00 0.00 50 1014.3
20260905152704 0 353 6.0 5.0 0.00 0.00 0.00
20260905151906 72 350 0.0 10.0 0.00 0.00 0.00 53 1014.5
20260905151115 72 357 5.0 10.0 0.00 0.00 0.00 51 1014.4
20260905150437 74 358 4.0 10.0 0.00 0.00 0.00 50 1014.4
20260905145756 74 355 0.0 2.0 0.00 0.00 0.00 51 1014.5
20260905145115 73 356 0.0 7.0 0.00 0.00 0.00 51 1014.5
20260905144446 0 359 4.0 8.0 0.00 0.00 0.00
20260905143645 73 356 2.0 6.0 0.00 0.00 0.00 53 1014.4
20260905143005 72 356 0.0 0.0 0.00 0.00 0.00 54 1014.4
20260905142325 71 357 0.0 0.0 0.00 0.00 0.00 65 1014.4
20260905141646 72 357 0.0 0.0 0.00 0.00 0.00 64 1014.4
20260905141005 72 357 0.0 0.0 0.00 0.00 0.00 66 1014.5
20260905140326 70 356 0.0 0.0 0.00 0.00 0.00 72 1014.6
20260905135318 67 360 0.0 0.0 0.00 0.00 0.00 76 1014.5
20260905134638 0 356 0.0 0.0 0.00 0.00 0.00
20260905133722 0 356 0.0 0.0 0.00 0.00 0.00
20260905132817 70 357 0.0 0.0 0.00 0.00 0.00 67 1014.4
20260905132147 71 356 0.0 0.0 0.00 0.00 0.00 67 1014.5
20260905131503 0 355 0.0 0.0 0.00 0.00 0.00
20260905130751 71 358 0.0 0.0 0.00 0.00 0.00 69 1014.5
20260905130111 0 357 0.0 0.0 0.00 0.00 0.00
20260905125222 69 356 0.0 0.0 0.00 0.00 0.00 71 1014.6
20260905124538 0 355 0.0 0.0 0.00 0.00 0.00
20260905123621 69 355 0.0 0.0 0.00 0.00 0.00 72 1014.7
20260905122943 0 354 0.0 0.0 0.00 0.00 0.00
20260905122152 69 355 0.0 0.0 0.00 0.00 0.00 74 1014.6
20260905121512 0 354 0.0 0.0 0.00 0.00 0.00
20260905120723 0 358 0.0 0.0 0.00 0.00 0.00
20260905115932 66 358 0.0 0.0 0.00 0.00 0.00 80 1014.8
20260905115252 66 358 0.0 0.0 0.00 0.00 0.00 80 1014.7
20260905114612 0 356 0.0 0.0 0.00 0.00 0.00
20260905113823 64 356 0.0 0.0 0.00 0.00 0.00 84 1014.6
20260905113144 64 358 0.0 0.0 0.00 0.00 0.00 85 1014.6
20260905112503 64 357 0.0 0.0 0.00 0.00 0.00 86 1014.4
20260905111823 64 356 0.0 0.0 0.00 0.00 0.00 88 1014.4
20260905111143 64 355 0.0 0.0 0.00 0.00 0.00 90 1014.2
20260905110503 0 358 0.0 0.0 0.00 0.00 0.00
20260905105712 62 357 0.0 0.0 0.00 0.00 0.00 90 1013.9
20260905105031 62 356 0.0 0.0 0.00 0.00 0.00 89 1013.7
20260905104351 62 356 0.0 0.0 0.00 0.00 0.00 89 1013.7
20260905103712 0 357 0.0 0.0 0.00 0.00 0.00
20260905102918 0 355 0.0 0.0 0.00 0.00 0.00
20260905101743 0 356 0.0 0.0 0.00 0.00 0.00
20260905100837 62 358 0.0 0.0 0.00 0.00 0.00 89 1013.9
20260905100158 0 359 0.0 0.0 0.00 0.00 0.00
20260905095405 62 359 0.0 0.0 0.00 0.00 0.00 89 1013.6
20260905094735 62 354 0.0 0.0 0.00 0.00 0.00 88 1013.6
20260905094045 62 354 0.0 0.0 0.00 0.00 0.00 88 1013.6
20260905093405 62 358 0.0 0.0 0.00 0.00 0.00 87 1013.6
20260905092353 0 357 0.0 0.0 0.00 0.00 0.00
20260905091453 0 357 0.0 0.0 0.00 0.00 0.00
20260905090701 0 356 0.0 0.0 0.00 0.00 0.00
20260905085914 63 359 0.0 0.0 0.00 0.00 0.00 84 1013.4
20260905085234 64 356 0.0 0.0 0.00 0.00 0.00 83 1013.2
20260905084554 0 351 0.0 0.0 0.00 0.00 0.00
20260905083816 64 355 0.0 0.0 0.00 0.00 0.00 82 1013.1
20260905083125 64 358 0.0 0.0 0.00 0.00 0.00 81 1013.0
20260905082447 64 357 0.0 0.0 0.00 0.00 0.00 81 1013.1
20260905081805 64 358 0.0 0.0 0.00 0.00 0.00 81 1013.0
20260905081126 0 354 0.0 0.0 0.00 0.00 0.00
20260905080306 65 358 0.0 0.0 0.00 0.00 0.00 79 1013.1
20260905075627 0 356 0.0 0.0 0.00 0.00 0.00
20260905074837 66 357 0.0 0.0 0.00 0.00 0.00 77 1013.1
20260905074157 0 0 0.0 0.0 0.00 0.00 0.00
20260905073408 66 355 0.0 0.0 0.00 0.00 0.00 76 1013.2
20260905072728 66 355 0.0 0.0 0.00 0.00 0.00 75 1013.3
20260905072048 66 356 0.0 0.0 0.00 0.00 0.00 75 1013.4
20260905071408 66 356 0.0 0.0 0.00 0.00 0.00 74 1013.5
20260905070734 0 358 0.0 0.0 0.00 0.00 0.00
20260905065758 0 355 0.0 0.0 0.00 0.00 0.00
20260905064748 67 357 0.0 0.0 0.00 0.00 0.00 72 1013.6
20260905064106 67 356 0.0 0.0 0.00 0.00 0.00 72 1013.6
20260905063427 67 358 0.0 0.0 0.00 0.00 0.00 71 1013.7
20260905062747 67 358 0.0 0.0 0.00 0.00 0.00 71 1013.7
20260905062107 67 356 0.0 0.0 0.00 0.00 0.00 70 1013.7
20260905061426 0 355 0.0 0.0 0.00 0.00 0.00
20260905060404 67 357 0.0 0.0 0.00 0.00 0.00 70 1013.8
20260905055726 0 358 0.0 0.0 0.00 0.00 0.00
20260905054927 0 358 0.0 0.0 0.00 0.00 0.00
20260905054140 0 358 0.0 0.0 0.00 0.00 0.00
20260905053056 68 356 0.0 0.0 0.00 0.00 0.00 68 1014.0